Regional Weather Roundup
Issued by NWS Upton, NY

Current Version | Previous Version | Graphics & Text | Print | Product List | Glossary Off
Versions: 1 2 3 4 5 6 7 8 9 10 11 12 13 14 15 16 17 18 19 20 21 22 23 24 25 26 27 28 29 30 31 32 33 34 35 36 37 38 39 40 41 42 43 44 45 46 47 48 49 50

659
ASUS41 KOKX 060204
RWROKX

REGIONAL WEATHER ROUNDUP
NATIONAL WEATHER SERVICE NEW YORK NY
1000 PM EDT THU MAY 05 2016

NOTE: "FAIR" INDICATES FEW OR NO CLOUDS BELOW 12,000 FEET WITH NO
SIGNIFICANT WEATHER AND/OR OBSTRUCTIONS TO VISIBILITY.

NYZ071-072-176-178-NJZ106-104-060300-
NEW YORK CITY METRO AREA


CITY           SKY/WX    TMP DP  RH WIND       PRES   REMARKS
CENTRAL PARK   CLOUDY    54  43  66 NE9       29.70R
LAGUARDIA APRT CLOUDY    54  48  80 NE14      29.68R
KENNEDY INTL   CLOUDY    53  45  74 NE17      29.69R
NEWARK/LIBERTY CLOUDY    55  45  68 NE12      29.67R
BRNX BOT. GARD   N/A     54  43  66 E2        29.70R
TETERBORO      CLOUDY    55  44  66 E8        29.67R
$$

NYZ177-179-078>081-060300-
LONG ISLAND NEW YORK

CITY           SKY/WX    TMP DP  RH WIND       PRES   REMARKS
FARMINGDALE    CLOUDY    50  44  80 NE12G21   29.69R
ISLIP          CLOUDY    50  42  74 NE15G26   29.67R
SHIRLEY        CLOUDY    49  42  77 NE9G18    29.67R
RIVERHEAD        N/A     48  45  87 E5        29.68R
WESTHAMPTON    CLOUDY    44  41  89 NE16G28   29.69R
EAST HAMPTON   CLOUDY    46  41  85 NE9G18    29.65S
MONTAUK POINT  NOT AVBL
$$

NYZ052-065-067-060300-
HUDSON VALLEY

CITY           SKY/WX    TMP DP  RH WIND       PRES   REMARKS
WHITE PLAINS   MOCLDY    52  44  74 NE10      29.67S
NEWBURGH       CLOUDY    54  46  76 NE9G21    29.69R
MONTGOMERY     CLOUDY    55  45  68 NE13      29.68S
POUGHKEEPSIE   CLOUDY    57  45  64 NE12      29.68R
ALBANY         CLOUDY    55  45  68 NW5       29.72S
$$

NJZ001-105-106-008-010-013-015-019>022-104-060300-
NEW JERSEY

CITY           SKY/WX    TMP DP  RH WIND       PRES   REMARKS
NEWARK/LIBERTY CLOUDY    55  45  68 NE12      29.67R
TETERBORO      CLOUDY    55  44  66 E8        29.67R
CALDWELL       CLOUDY    55  44  66 E6        29.68R
MORRISTOWN     CLOUDY    55  46  71 NE6       29.68R
SOMERVILLE     CLOUDY    56  44  64 N3        29.65R
SUSSEX         CLOUDY    55  44  66 NE9       29.68S
ANDOVER          N/A     54  45  71 VRB5      29.68R
TRENTON        CLOUDY    55  44  66 NE6       29.68R
MILLVILLE      CLOUDY    52  46  80 E5        29.67R
ATLANTIC CITY  CLOUDY    50  47  89 NE12      29.66R
WRIGHTSTOWN    CLOUDY    53  46  78 NE10      29.64R
TOMS RIVER     CLOUDY    52  43  71 NE10G16   29.67S
BELMAR         CLOUDY    51  46  83 NE10      29.68R
$$

PAZ047>061-062-071-060300-
EASTERN PENNSYLVANIA

CITY           SKY/WX    TMP DP  RH WIND       PRES   REMARKS
PHILADELPHIA   CLOUDY    57  45  64 NE5       29.67R
ALLENTOWN      CLOUDY    55  44  66 NE6       29.68R
SCRANTON       CLOUDY    53  43  68 NE9       29.70R
$$

CTZ002-004>006-009-010-012-RIZ004-006-007-MAZ004-011-015-060300-
SOUTHERN NEW ENGLAND
 IN CT

CITY           SKY/WX    TMP DP  RH WIND       PRES   REMARKS
BRADLEY INTL   CLOUDY    49  43  80 NE13      29.69S
HARTFORD       CLOUDY    51  43  74 N14       29.70R
DANBURY        CLOUDY    51  43  74 N12       29.70R
WTRBRY/OXFORD    N/A     46  41  81 NE13G20   29.69S
BRIDGEPORT     CLOUDY    52  43  71 NE13      29.69R
MERIDEN        CLOUDY    50  42  74 N14G21    29.68S
NEW HAVEN      CLOUDY    50  43  77 N10       29.67R
CHESTER        CLOUDY    46  43  87 NE10G18   29.67S
GROTON         LGT RAIN  46  44  93 N13       29.66R
WILLIMANTIC    LGT RAIN  47  42  83 N9        29.69R

 IN RI

CITY           SKY/WX    TMP DP  RH WIND       PRES   REMARKS
PROVIDENCE     CLOUDY    46  41  82 N13G23    29.70R
BLOCK ISLAND   CLOUDY    46  42  86 NE21G32   29.65R
WESTERLY       LGT RAIN  46  41  82 N14G25    29.65S

 IN MA

CITY           SKY/WX    TMP DP  RH WIND       PRES   REMARKS
BOSTON         LGT RAIN  45  42  89 N14       29.70S
WORCESTER      CLOUDY    43  41  93 NE15G23   29.70R
WESTFIELD      CLOUDY    50  43  77 NE7       29.71R
PROVINCETOWN   LGT RAIN  44  43  96 NE21G28   29.65S
NANTUCKET      LGT RAIN N/A N/A N/A N31G40    29.56S
$$

ANZ330-335-338-340-345-350-353-355-060300-
COASTAL MARINE OBSERVATIONS


STATION/POSITION TIME  SKY/WX   TEMP    WIND        PRES    VSBY  WAVE
                                AIR SEA DIR/SP/G                  HT/PER
                 (UTC)          (F)     (DEG/KT/KT) (MB)    (MI)  (FT/S)
NY HARB ENTRANCE 0050            51 50   30/ 12/ 14 1003.5          4/ 7
20S FIRE ISLAND  0050            48 48   30/ 17/ 23 1003.2          7/ 8
GREAT SOUTH BAY  0100            50 53   20/ 14/ 17   N/A
23 SSW MONTAUK P 0150            46 46   20/ 21/ 27 1003.1          7/ 7
15 E BARNEGAT LI 0122               48                N/A           7/ 8
HUDSON CANYON    0050            47 49              1001.7         10/ 8
KINGS POINT      0100            53 53              1004.2
EXECUTION ROCKS  NOT AVBL
CENTRAL LI SOUND 0130            49      50/ 17/ 19   N/A           3/ 4
EASTERN LI SOUND 0100            47 48   20/ 14/ 19   N/A
ROBBINS REEF     0100            55                 1003.4
$$


>>>>>>>>>>>>>>>>>>>>>>>>>>>> KEY <<<<<<<<<<<<<<<<<<<<<<<<<<<
>                                                          <
>     SKY/WX - SKY CONDITION/PRESENT WEATHER               <
>     TMP    - TEMPERATURE IN FAHRENHEIT                   <
>     DP     - DEWPOINT IN FAHRENHEIT                      <
>     RH     - RELATIVE HUMIDITY IN PERCENT                <
>     WIND   - DIRECTION AND SPEED IN MPH                  <
>     PRES   - MEAN SEA LEVEL PRESSURE IN INCHES OF HG     <
>     WCI    - WIND CHILL INDEX                            <
>     VSB    - VISIBILITY IN MILES                         <
>     HX     - HEAT INDEX                                  <
>     TC     - TEMPERATURE IN CELSIUS                      <
>     VRB    - VARIABLE WIND DIRECTION                     <
>                                                          <
>>>>>>>>>>>>>>>>>>>>>>>>>>>> KEY <<<<<<<<<<<<<<<<<<<<<<<<<<<






USA.gov is the U.S. government's official web portal to all federal, state and local government web resources and services.